{"data":{"norad_id":58208,"intl_designator":"2023-170C","name":"STARLINK-30841","alt_names":[],"object_type":"PAYLOAD","status":"ACTIVE","operator":null,"country":"US","launch_date":"2023-11-03","launch_site_code":"AFETR","launch_vehicle":null,"mission":null,"orbit_class":"UNKNOWN","rcs_meters":null,"size_class":null,"mass_kg":null,"dimensions":null,"purposes":["comms"],"wikipedia_slug":null,"has_3d_model":false,"image_url":null,"decayed_at":null,"tle_current":{"epoch":"2026-09-20T03:06:09.747072Z","epoch_age_seconds":175718,"freshness":"STALE","line1":"1 58208U 23170C   26263.12927948 -.00000100  00000+0  58771-5 0  9991","line2":"2 58208  43.0012 176.3626 0001139 264.7418  95.3304 15.27576175160032","mean_motion":15.27576175,"eccentricity":0.0001139,"inclination_deg":43.0012,"raan_deg":176.3626,"arg_perigee_deg":264.7418,"mean_anomaly_deg":95.3304,"bstar":5.8771e-6,"rev_number":16003,"period_min":94.266984754459,"perigee_km":482.2790590887,"apogee_km":483.84203989048,"semimajor_km":6861.1975494896,"source":"CELESTRAK","updated_at":"2026-09-21T09:00:33.831318Z"}}}